Aeroporto :
LOGIN :

Iscrizione | Disclaimer

   EN    FR    IT 

 










Sommario :    VFR   VFR Marginale   IFR   IFR Intensivo   IFR Molto Intensivo
Visibilità : 
Base nubi : 
>= 8 km
>= 3000ft
5 / 8 km
1000 / 3000 ft
1500m / 5 km
500 / 1000 ft
800 / 1500m
200 / 500 ft
< 800m
< 200 ft
Simboli :   Temporali  Nebbia  Neve Forte  Precipitazioni Forti  Vento > 20 kt
SIGMETs :   Varie  Temporali  Ghiacco  Turbolenza  Onda orograficha  Ceneri Vulcaniche







- Altitudine del aeroporto : 1306 ft
- Codice IATA : ACH


LSZR - Alten Rhein

ULTIMO METAR :
  • 122350Z AUTO 10004KT CAVOK M05/M07 Q1017

METARs OBSOLETI :
  • 122320Z AUTO VRB03KT CAVOK M04/M06 Q1017
  • 122250Z AUTO VRB02KT CAVOK M03/M06 Q1018
  • 122220Z AUTO 11003KT 080V170 CAVOK M03/M06 Q1018
  • 122150Z AUTO 09005KT 9999 NCD M04/M06 Q1018
  • 122120Z AUTO 09005KT 9999 SCT029 M03/M05 Q1018

Previsioni scadute.
ATIS : +41 71 858 51 66
Nessun NOTAM noto per questo aeroporto.



MetMap, La meteo Aeronautica in un colpo d'occhio ! - Copyright ORBIFLY Dicembre 2007 - Disclaimer

ORBIFLY MET'MAP TEAM :

Programmazione e sviluppo : Alexandra Zaïnal
Concezione e sviluppo : Baudouin d'Aumeries
Co-Programmazione e sviluppo : Marc-Olivier Méhu
Supporto tecnico e logistico : Manuel Goepfert
Aiuto per la traduzione : Arnaldo La Scala

Contatto : metmap@orbifly.com




FONTI E CREDITI :

   NOAA